sat.trackr.live / text

‹ back to catalog

STARLINK-32808

NORAD 62863 · 2025-022K

PAYLOAD ACTIVE UNKNOWN

§ Identity

Operator
Country
US
Launch date
2025-02-01
Launch site
AFWTR
Launch vehicle
Mass (kg)
RCS (m²)

Purposes: comms

External: N2YO · Heavens-Above · Gunter

§ Orbital elements

Epoch: 2026-05-25T03:31:10.215264Z

Period
94.10 min
Inclination
53.1591°
Eccentricity
0.0001160
Mean motion
15.30217948 rev/d
Perigee alt
474.4 km
Apogee alt
476.0 km
Semi-major
6,853.3 km
B*
1.0780e-3
RAAN
134.6452°
Arg perigee
90.4722°
Mean anomaly
269.6412°
Rev number
7,360

§ Raw data

STARLINK-328081 62863U 25022K   26145.14664601  .00031724  00000+0  10780-2 0  99962 62863  53.1591 134.6452 0001160  90.4722 269.6412 15.30217948 73604

JSON: /api/v1/satellites/62863 · /tle

For live sub-satellite position, see the globe view (requires WebGL).

§ Visibility from observer

Set your observer location to see the next 7 days of passes ≥ 10°. The values pass through the URL so the page stays shareable.

No JS? Fill the form by hand. The geolocation button needs JavaScript.